• In Uzbekistan
  • List of Countries
  • For 7 days
  • Water Temperature
  • Satellite Maps
  • Weather Map
  • Weather Widgets
  • user-avatar
    Login

    Hourly Weather Aigion

    Today, 19 November, Sunday

    Time Temperature Precipitation Wind Pressure Humidity
    00:00 +14°C° 0.2 mm 1 mps 755 mmHg 89%
    01:00 +14°C° 0.2 mm 1 mps 755 mmHg 89%
    02:00 +15°C° 0.6 mm 2 mps 755 mmHg 89%
    03:00 +15°C° 0.6 mm 2 mps 754 mmHg 89%
    04:00 +15°C° 0.6 mm 2 mps 754 mmHg 90%
    05:00 +15°C° 1.2 mm 2 mps 754 mmHg 90%
    06:00 +15°C° 1.2 mm 2 mps 754 mmHg 90%
    07:00 +15°C° 1.2 mm 1 mps 755 mmHg 91%
    08:00 +15°C° 0.3 mm 1 mps 755 mmHg 87%
    09:00 +16°C° 0.3 mm 1 mps 755 mmHg 83%
    10:00 +16°C° 0.3 mm 1 mps 756 mmHg 80%
    11:00 +17°C° 0.1 mm 2 mps 755 mmHg 76%
    12:00 +18°C° 0.1 mm 2 mps 755 mmHg 73%
    13:00 +18°C° 0.1 mm 2 mps 755 mmHg 70%
    14:00 +18°C° 0.3 mm 2 mps 755 mmHg 74%
    15:00 +17°C° 0.3 mm 2 mps 755 mmHg 78%
    16:00 +16°C° 0.3 mm 2 mps 755 mmHg 82%
    17:00 +16°C° 0.2 mm 2 mps 755 mmHg 84%
    18:00 +15°C° 0.2 mm 2 mps 755 mmHg 86%
    19:00 +15°C° 0.2 mm 2 mps 755 mmHg 89%
    20:00 +14°C° 0.1 mm 2 mps 755 mmHg 89%
    21:00 +14°C° 0.1 mm 2 mps 756 mmHg 89%
    22:00 +14°C° 0.1 mm 2 mps 756 mmHg 89%
    23:00 +14°C° 0.1 mm 2 mps 756 mmHg 88%

    Tomorrow, 20 November, Monday

    Time Temperature Precipitation Wind Pressure Humidity
    00:00 +14°C° 0.1 mm 2 mps 756 mmHg 88%
    01:00 +14°C° 0.1 mm 2 mps 756 mmHg 88%
    02:00 +14°C° 0.1 mm 2 mps 756 mmHg 87%
    03:00 +13°C° 0.1 mm 2 mps 755 mmHg 87%
    04:00 +13°C° 0.1 mm 2 mps 755 mmHg 86%
    05:00 +13°C° 0.1 mm 2 mps 755 mmHg 86%
    06:00 +12°C° 0.1 mm 3 mps 756 mmHg 85%
    07:00 +12°C° 0.1 mm 3 mps 756 mmHg 84%
    08:00 +13°C° 0.1 mm 3 mps 756 mmHg 78%
    09:00 +14°C° 0.1 mm 4 mps 756 mmHg 71%
    10:00 +15°C° 0.1 mm 5 mps 756 mmHg 64%
    11:00 +15°C° 0.1 mm 5 mps 756 mmHg 61%
    12:00 +15°C° 0.1 mm 6 mps 756 mmHg 58%
    13:00 +15°C° 0.1 mm 6 mps 756 mmHg 55%
    14:00 +14°C° 0.1 mm 5 mps 757 mmHg 57%
    15:00 +13°C° 0.1 mm 4 mps 757 mmHg 59%
    16:00 +12°C° 0.1 mm 3 mps 758 mmHg 61%
    17:00 +12°C° 0 mm 3 mps 758 mmHg 62%
    18:00 +11°C° 0 mm 3 mps 759 mmHg 63%
    19:00 +10°C° 0 mm 3 mps 760 mmHg 63%
    20:00 +10°C° 0 mm 2 mps 761 mmHg 63%
    21:00 +9°C° 0 mm 2 mps 761 mmHg 62%
    22:00 +9°C° 0 mm 2 mps 762 mmHg 62%
    23:00 +8°C° 0 mm 2 mps 762 mmHg 61%

    Day after tomorrow, 21 November, Tuesday

    Time Temperature Precipitation Wind Pressure Humidity
    00:00 +8°C° 0 mm 2 mps 762 mmHg 61%
    01:00 +9°C° 0 mm 1 mps 763 mmHg 60%
    02:00 +9°C° 0 mm 1 mps 763 mmHg 59%
    03:00 +8°C° 0 mm 1 mps 763 mmHg 58%
    04:00 +8°C° 0 mm 1 mps 763 mmHg 57%
    05:00 +8°C° 0 mm 1 mps 763 mmHg 57%
    06:00 +9°C° 0 mm 1 mps 763 mmHg 56%
    07:00 +9°C° 0 mm 1 mps 763 mmHg 55%
    08:00 +11°C° 0 mm 1 mps 764 mmHg 48%
    09:00 +13°C° 0 mm 1 mps 764 mmHg 42%
    10:00 +15°C° 0 mm 1 mps 764 mmHg 35%
    11:00 +15°C° 0 mm 1 mps 763 mmHg 34%
    12:00 +16°C° 0 mm 1 mps 763 mmHg 33%
    13:00 +16°C° 0 mm 1 mps 763 mmHg 33%
    14:00 +15°C° 0 mm 1 mps 763 mmHg 38%
    15:00 +14°C° 0 mm 1 mps 763 mmHg 43%
    16:00 +13°C° 0 mm 1 mps 763 mmHg 48%
    17:00 +12°C° 0 mm 1 mps 763 mmHg 51%
    18:00 +12°C° 0 mm 1 mps 763 mmHg 53%
    19:00 +11°C° 0 mm 1 mps 763 mmHg 56%
    20:00 +11°C° 0 mm 1 mps 763 mmHg 57%
    21:00 +11°C° 0 mm 1 mps 763 mmHg 58%
    22:00 +10°C° 0 mm 1 mps 763 mmHg 58%
    23:00 +10°C° 0 mm 1 mps 763 mmHg 57%

    22 November, Wednesday

    Time Temperature Precipitation Wind Pressure Humidity
    00:00 +10°C° 0 mm 1 mps 763 mmHg 56%
    01:00 +10°C° 0 mm 1 mps 763 mmHg 55%
    02:00 +10°C° 0 mm 1 mps 763 mmHg 54%
    03:00 +10°C° 0 mm 1 mps 763 mmHg 53%
    04:00 +10°C° 0 mm 1 mps 763 mmHg 53%
    05:00 +10°C° 0 mm 1 mps 763 mmHg 53%
    06:00 +11°C° 0 mm 1 mps 763 mmHg 54%
    07:00 +11°C° 0 mm 1 mps 763 mmHg 55%
    08:00 +13°C° 0 mm 1 mps 763 mmHg 51%
    09:00 +15°C° 0 mm 1 mps 763 mmHg 47%
    10:00 +18°C° 0 mm 1 mps 763 mmHg 44%
    11:00 +19°C° 0 mm 1 mps 763 mmHg 45%
    12:00 +20°C° 0 mm 1 mps 763 mmHg 45%
    13:00 +20°C° 0 mm 1 mps 762 mmHg 46%
    14:00 +19°C° 0 mm 1 mps 762 mmHg 52%
    15:00 +18°C° 0 mm 1 mps 762 mmHg 58%
    16:00 +16°C° 0 mm 1 mps 762 mmHg 64%
    17:00 +15°C° 0 mm 1 mps 763 mmHg 67%
    18:00 +14°C° 0 mm 0 mps 763 mmHg 69%
    19:00 +13°C° 0 mm 0 mps 763 mmHg 71%
    20:00 +13°C° 0 mm 0 mps 763 mmHg 72%
    21:00 +14°C° 0 mm 1 mps 764 mmHg 73%
    22:00 +14°C° 0 mm 1 mps 764 mmHg 74%
    23:00 +13°C° 0 mm 1 mps 764 mmHg 75%

    23 November, Thursday

    Time Temperature Precipitation Wind Pressure Humidity
    00:00 +13°C° 0 mm 1 mps 764 mmHg 76%
    01:00 +13°C° 0 mm 1 mps 764 mmHg 77%
    02:00 +13°C° 0 mm 1 mps 764 mmHg 77%
    03:00 +13°C° 0 mm 1 mps 764 mmHg 77%
    04:00 +13°C° 0 mm 1 mps 764 mmHg 77%
    05:00 +13°C° 0 mm 1 mps 764 mmHg 77%
    06:00 +13°C° 0 mm 1 mps 764 mmHg 77%
    07:00 +13°C° 0 mm 1 mps 765 mmHg 77%
    08:00 +15°C° 0 mm 1 mps 765 mmHg 70%
    09:00 +18°C° 0 mm 1 mps 765 mmHg 63%
    10:00 +18°C° 0 mm 0 mps 765 mmHg 56%
    11:00 +20°C° 0 mm 1 mps 765 mmHg 54%
    12:00 +21°C° 0 mm 1 mps 765 mmHg 52%
    13:00 +21°C° 0 mm 1 mps 765 mmHg 50%
    14:00 +20°C° 0 mm 1 mps 765 mmHg 55%
    15:00 +19°C° 0 mm 1 mps 765 mmHg 60%
    16:00 +18°C° 0 mm 1 mps 765 mmHg 65%
    17:00 +16°C° 0 mm 1 mps 765 mmHg 67%
    18:00 +14°C° 0 mm 0 mps 766 mmHg 70%
    19:00 +14°C° 0 mm 0 mps 766 mmHg 72%
    20:00 +13°C° 0 mm 0 mps 766 mmHg 73%
    21:00 +13°C° 0 mm 0 mps 766 mmHg 74%
    22:00 +14°C° 0 mm 1 mps 766 mmHg 74%
    23:00 +14°C° 0 mm 1 mps 766 mmHg 75%

    24 November, Friday

    Time Temperature Precipitation Wind Pressure Humidity
    00:00 +14°C° 0 mm 1 mps 766 mmHg 75%
    01:00 +14°C° 0 mm 1 mps 766 mmHg 75%
    02:00 +13°C° 0 mm 1 mps 766 mmHg 75%
    03:00 +13°C° 0 mm 1 mps 766 mmHg 75%
    04:00 +13°C° 0 mm 1 mps 766 mmHg 75%
    05:00 +13°C° 0 mm 1 mps 766 mmHg 74%
    06:00 +13°C° 0 mm 1 mps 767 mmHg 73%
    07:00 +13°C° 0 mm 1 mps 767 mmHg 72%
    08:00 +15°C° 0 mm 1 mps 767 mmHg 63%
    09:00 +18°C° 0 mm 1 mps 767 mmHg 55%
    10:00 +21°C° 0 mm 1 mps 767 mmHg 47%
    11:00 +21°C° 0 mm 1 mps 767 mmHg 45%
    12:00 +21°C° 0 mm 1 mps 766 mmHg 43%
    13:00 +22°C° 0 mm 1 mps 766 mmHg 42%
    14:00 +21°C° 0 mm 1 mps 766 mmHg 48%
    15:00 +19°C° 0 mm 1 mps 766 mmHg 53%
    16:00 +18°C° 0 mm 1 mps 766 mmHg 59%
    17:00 +16°C° 0 mm 1 mps 766 mmHg 62%
    18:00 +14°C° 0 mm 0 mps 767 mmHg 64%
    19:00 +14°C° 0 mm 0 mps 767 mmHg 67%
    20:00 +13°C° 0 mm 0 mps 767 mmHg 67%
    21:00 +13°C° 0 mm 0 mps 767 mmHg 68%
    22:00 +14°C° 0 mm 1 mps 767 mmHg 68%
    23:00 +14°C° 0 mm 1 mps 767 mmHg 69%
    Show more